Location: Axtheid
(49.6213°N, 11.8205°E)
Time: 08:28:40
(UTC+00:00)

ADEOS Rocket - Pass Details

Date: 18 February 2020
Orbit: 859 x 1306 km, 98.7° (Epoch: 03 April)

Event Time Altitude Azimuth Distance (km) Brightness Sun altitude
Rises 05:31:41 0° 178° (S) 3,641 6.1 -8.2°
Reaches altitude 10° 05:34:05 10° 183° (S) 2,753 5.5 -7.8°
Maximum altitude 05:40:11 56° 261° (W) 1,258 3.3 -6.8°
Drops below altitude 10° 05:47:03 10° 339° (NNW) 3,080 5.3 -5.7°
Sets 05:49:52 0° 344° (NNW) 4,107 6.0 -5.3°
